When you browse on this site, cookies collect data to enhance your experience and personalize the content and advertising you see.
Visit our Privacy Policy to learn more. By continuing to use the site, you agree to this use of cookies and data.
  • In Deutschland
  • Länderverzeichnis
  • Für 7 Tage
  • Wassertemperatur
  • Wetterkarte
  • Widgets
  • user-avatar
    Anmelden

    Stündliche Wetter Constantine

    Heute, 11 Dezember, Mittwoch

    Zeit Temperatur Niederschläge Wind Luftdruck Luftfeuchtigkeit
    00:00 +3°C° 0 mm 5 m/S 711 mmHg 93%
    01:00 +4°C° 0 mm 4 m/S 711 mmHg 93%
    02:00 +4°C° 0 mm 4 m/S 711 mmHg 93%
    03:00 +4°C° 0 mm 3 m/S 711 mmHg 92%
    04:00 +4°C° 0 mm 3 m/S 711 mmHg 93%
    05:00 +4°C° 0 mm 3 m/S 711 mmHg 93%
    06:00 +5°C° 0 mm 2 m/S 711 mmHg 93%
    07:00 +5°C° 0 mm 3 m/S 711 mmHg 88%
    08:00 +7°C° 0 mm 3 m/S 711 mmHg 84%
    09:00 +7°C° 0 mm 4 m/S 712 mmHg 80%
    10:00 +9°C° 0 mm 3 m/S 711 mmHg 74%
    11:00 +10°C° 0 mm 3 m/S 711 mmHg 68%
    12:00 +10°C° 0 mm 3 m/S 711 mmHg 62%
    13:00 +11°C° 0 mm 3 m/S 710 mmHg 60%
    14:00 +12°C° 0 mm 2 m/S 710 mmHg 57%
    15:00 +12°C° 0 mm 2 m/S 710 mmHg 55%
    16:00 +10°C° 0 mm 2 m/S 709 mmHg 57%
    17:00 +9°C° 0 mm 2 m/S 709 mmHg 60%
    18:00 +9°C° 0 mm 1 m/S 709 mmHg 63%
    19:00 +8°C° 0 mm 2 m/S 709 mmHg 61%
    20:00 +8°C° 0 mm 2 m/S 709 mmHg 59%
    21:00 +8°C° 0 mm 2 m/S 708 mmHg 58%
    22:00 +8°C° 0 mm 2 m/S 708 mmHg 59%
    23:00 +7°C° 0 mm 2 m/S 708 mmHg 61%

    Morgen, 12 Dezember, Donnerstag

    Zeit Temperatur Niederschläge Wind Luftdruck Luftfeuchtigkeit
    00:00 +7°C° 0 mm 2 m/S 708 mmHg 62%
    01:00 +8°C° 0 mm 2 m/S 708 mmHg 67%
    02:00 +8°C° 0 mm 3 m/S 708 mmHg 72%
    03:00 +8°C° 0 mm 3 m/S 708 mmHg 77%
    04:00 +8°C° 0.1 mm 3 m/S 708 mmHg 82%
    05:00 +7°C° 0.1 mm 3 m/S 709 mmHg 86%
    06:00 +6°C° 0.1 mm 4 m/S 709 mmHg 90%
    07:00 +7°C° 0 mm 4 m/S 709 mmHg 85%
    08:00 +7°C° 0 mm 4 m/S 710 mmHg 81%
    09:00 +8°C° 0 mm 5 m/S 710 mmHg 76%
    10:00 +8°C° 0 mm 5 m/S 710 mmHg 73%
    11:00 +9°C° 0 mm 6 m/S 709 mmHg 69%
    12:00 +9°C° 0 mm 6 m/S 709 mmHg 66%
    13:00 +9°C° 0 mm 5 m/S 709 mmHg 65%
    14:00 +9°C° 0 mm 5 m/S 708 mmHg 65%
    15:00 +10°C° 0 mm 4 m/S 708 mmHg 64%
    16:00 +8°C° 0 mm 4 m/S 708 mmHg 66%
    17:00 +8°C° 0 mm 4 m/S 708 mmHg 68%
    18:00 +7°C° 0 mm 4 m/S 707 mmHg 70%
    19:00 +8°C° 0 mm 3 m/S 707 mmHg 72%
    20:00 +7°C° 0 mm 3 m/S 707 mmHg 74%
    21:00 +7°C° 0 mm 3 m/S 707 mmHg 76%
    22:00 +7°C° 0 mm 3 m/S 707 mmHg 77%
    23:00 +7°C° 0 mm 3 m/S 706 mmHg 78%

    übermorgen, 13 Dezember, Freitag

    Zeit Temperatur Niederschläge Wind Luftdruck Luftfeuchtigkeit
    00:00 +5°C° 0 mm 3 m/S 706 mmHg 79%
    01:00 +5°C° 0 mm 3 m/S 706 mmHg 79%
    02:00 +7°C° 0 mm 3 m/S 706 mmHg 79%
    03:00 +6°C° 0 mm 4 m/S 705 mmHg 80%
    04:00 +6°C° 0 mm 4 m/S 705 mmHg 79%
    05:00 +7°C° 0 mm 3 m/S 705 mmHg 79%
    06:00 +8°C° 0 mm 3 m/S 705 mmHg 78%
    07:00 +7°C° 0 mm 4 m/S 705 mmHg 76%
    08:00 +8°C° 0 mm 4 m/S 705 mmHg 74%
    09:00 +10°C° 0 mm 4 m/S 705 mmHg 73%
    10:00 +10°C° 0 mm 5 m/S 705 mmHg 71%
    11:00 +13°C° 0 mm 6 m/S 705 mmHg 68%
    12:00 +14°C° 0 mm 6 m/S 705 mmHg 66%
    13:00 +14°C° 0 mm 6 m/S 704 mmHg 68%
    14:00 +14°C° 0 mm 6 m/S 704 mmHg 70%
    15:00 +14°C° 0 mm 6 m/S 704 mmHg 71%
    16:00 +13°C° 0 mm 5 m/S 704 mmHg 75%
    17:00 +12°C° 0 mm 5 m/S 704 mmHg 79%
    18:00 +11°C° 0 mm 4 m/S 704 mmHg 84%
    19:00 +11°C° 0 mm 4 m/S 705 mmHg 84%
    20:00 +11°C° 0 mm 4 m/S 705 mmHg 84%
    21:00 +10°C° 0 mm 4 m/S 705 mmHg 85%
    22:00 +9°C° 0 mm 5 m/S 706 mmHg 84%
    23:00 +10°C° 0 mm 5 m/S 706 mmHg 84%

    14 Dezember, Samstag

    Zeit Temperatur Niederschläge Wind Luftdruck Luftfeuchtigkeit
    00:00 +10°C° 0 mm 6 m/S 706 mmHg 84%
    01:00 +10°C° 0 mm 6 m/S 707 mmHg 85%
    02:00 +9°C° 0 mm 6 m/S 707 mmHg 87%
    03:00 +9°C° 0 mm 6 m/S 707 mmHg 88%
    04:00 +9°C° 0 mm 5 m/S 707 mmHg 89%
    05:00 +10°C° 0 mm 4 m/S 708 mmHg 90%
    06:00 +10°C° 0 mm 4 m/S 708 mmHg 91%
    07:00 +11°C° 0 mm 4 m/S 709 mmHg 87%
    08:00 +11°C° 0 mm 4 m/S 710 mmHg 84%
    09:00 +12°C° 0 mm 4 m/S 711 mmHg 81%
    10:00 +13°C° 0 mm 4 m/S 711 mmHg 77%
    11:00 +13°C° 0 mm 4 m/S 711 mmHg 73%
    12:00 +14°C° 0 mm 4 m/S 711 mmHg 69%
    13:00 +14°C° 0 mm 3 m/S 711 mmHg 68%
    14:00 +15°C° 0 mm 2 m/S 711 mmHg 67%
    15:00 +15°C° 0 mm 2 m/S 711 mmHg 66%
    16:00 +14°C° 0 mm 1 m/S 711 mmHg 72%
    17:00 +13°C° 0 mm 1 m/S 711 mmHg 77%
    18:00 +11°C° 0 mm 1 m/S 712 mmHg 83%
    19:00 +11°C° 0 mm 1 m/S 712 mmHg 82%
    20:00 +11°C° 0 mm 1 m/S 712 mmHg 82%
    21:00 +11°C° 0 mm 1 m/S 712 mmHg 81%
    22:00 +11°C° 0 mm 1 m/S 712 mmHg 80%
    23:00 +11°C° 0 mm 1 m/S 712 mmHg 79%

    15 Dezember, Sonntag

    Zeit Temperatur Niederschläge Wind Luftdruck Luftfeuchtigkeit
    00:00 +11°C° 0 mm 1 m/S 711 mmHg 78%
    01:00 +11°C° 0 mm 1 m/S 711 mmHg 78%
    02:00 +11°C° 0 mm 1 m/S 711 mmHg 77%
    03:00 +10°C° 0 mm 1 m/S 711 mmHg 77%
    04:00 +10°C° 0 mm 1 m/S 711 mmHg 77%
    05:00 +10°C° 0 mm 1 m/S 711 mmHg 77%
    06:00 +10°C° 0 mm 1 m/S 711 mmHg 76%
    07:00 +11°C° 0 mm 1 m/S 712 mmHg 72%
    08:00 +13°C° 0 mm 2 m/S 712 mmHg 67%
    09:00 +14°C° 0 mm 2 m/S 713 mmHg 62%
    10:00 +16°C° 0 mm 2 m/S 713 mmHg 57%
    11:00 +17°C° 0 mm 2 m/S 713 mmHg 52%
    12:00 +18°C° 0 mm 2 m/S 713 mmHg 47%
    13:00 +18°C° 0 mm 2 m/S 713 mmHg 49%
    14:00 +18°C° 0 mm 2 m/S 712 mmHg 52%
    15:00 +19°C° 0 mm 1 m/S 712 mmHg 55%
    16:00 +16°C° 0 mm 1 m/S 712 mmHg 58%
    17:00 +15°C° 0 mm 1 m/S 712 mmHg 61%
    18:00 +13°C° 0 mm 1 m/S 712 mmHg 64%
    19:00 +13°C° 0 mm 1 m/S 712 mmHg 63%
    20:00 +13°C° 0 mm 2 m/S 712 mmHg 62%
    21:00 +13°C° 0 mm 2 m/S 712 mmHg 61%
    22:00 +13°C° 0 mm 2 m/S 711 mmHg 61%
    23:00 +12°C° 0 mm 2 m/S 711 mmHg 62%

    16 Dezember, Montag

    Zeit Temperatur Niederschläge Wind Luftdruck Luftfeuchtigkeit
    00:00 +12°C° 0 mm 2 m/S 711 mmHg 62%
    01:00 +12°C° 0 mm 2 m/S 711 mmHg 63%
    02:00 +10°C° 0 mm 2 m/S 710 mmHg 64%
    03:00 +10°C° 0 mm 2 m/S 710 mmHg 64%
    04:00 +10°C° 0 mm 2 m/S 710 mmHg 65%
    05:00 +9°C° 0 mm 2 m/S 710 mmHg 65%
    06:00 +9°C° 0 mm 2 m/S 710 mmHg 66%
    07:00 +11°C° 0 mm 3 m/S 710 mmHg 63%
    08:00 +12°C° 0 mm 3 m/S 710 mmHg 61%
    09:00 +13°C° 0 mm 3 m/S 710 mmHg 58%
    10:00 +16°C° 0 mm 3 m/S 710 mmHg 54%
    11:00 +17°C° 0 mm 4 m/S 710 mmHg 49%
    12:00 +18°C° 0 mm 4 m/S 710 mmHg 45%
    13:00 +19°C° 0 mm 4 m/S 709 mmHg 46%
    14:00 +19°C° 0 mm 3 m/S 709 mmHg 47%
    15:00 +19°C° 0 mm 2 m/S 708 mmHg 48%
    16:00 +17°C° 0 mm 2 m/S 708 mmHg 51%
    17:00 +15°C° 0 mm 2 m/S 708 mmHg 54%
    18:00 +14°C° 0 mm 2 m/S 708 mmHg 57%
    19:00 +13°C° 0 mm 2 m/S 708 mmHg 58%
    20:00 +13°C° 0 mm 2 m/S 708 mmHg 59%
    21:00 +12°C° 0 mm 2 m/S 708 mmHg 60%
    22:00 +11°C° 0 mm 3 m/S 707 mmHg 61%
    23:00 +11°C° 0 mm 3 m/S 707 mmHg 61%
    Mehr zeigen